Left ArrowRight Arrow

Hourly Observations for February 6, 2017

Temp ( °F °C ) Dew Point ( °F °C ) Humidity (%) Winds ( mph kmh ) Pressure ( in mb ) Visibility ( mi km ) Precip ( " mm )
12:53 am 00:53 Clear 35 1.7 30 -1.1 82 82 Calm 30.15 1021 10 16 0.00 0.00
1:53 am 01:53 Clear 33 0.6 29 -1.7 85 85 Calm 30.15 1021 10 16 0.00 0.00
2:53 am 02:53 Clear 32 0 28 -2.2 85 85 Calm 30.15 1021 7 11 0.00 0.00
3:53 am 03:53 Clear 31 -0.6 27 -2.8 85 85 Calm 30.13 1020 9 14 0.00 0.00
4:53 am 04:53 Clear 30 -1.1 27 -2.8 88 88 Calm 30.15 1021 8 13 0.00 0.00
5:53 am 05:53 Clear 30 -1.1 26 -3.3 85 85 Calm 30.16 1022 7 11 0.00 0.00
6:53 am 06:53 Clear with Mist and Fog 29 -1.7 25 -3.9 85 85 Calm 30.16 1021 6 10 0.00 0.00
7:53 am 07:53 Sunny with Mist and Fog 30 -1.1 26 -3.3 85 85 Calm 30.16 1021 6 10 0.00 0.00
8:53 am 08:53 Sunny 35 1.7 32 0 89 89 Calm 30.16 1021 8 13 0.00 0.00
9:53 am 09:53 Sunny 43 6.1 35 1.7 74 74 SSE 3 6 30.16 1021 10 16 0.00 0.00
10:53 am 10:53 Sunny 50 10 36 2.2 59 59 S 12 19 30.14 1021 10 16 0.00 0.00
11:53 am 11:53 Sunny 56 13.3 36 2.2 47 47 SSW 12 19 30.11 1020 10 16 0.00 0.00
12:53 pm 12:53 Mostly Sunny 60 15.6 43 6.1 53 53 SW 13 20 30.08 1019 10 16 0.00 0.00
1:53 pm 13:53 Mostly Sunny 62 16.7 43 6.1 50 50 S 7 11 30.03 1017 10 16 0.00 0.00
2:15 pm 14:15 Mostly Cloudy 62 16.7 45 7.2 54 54 S 12 19 30.00 1016 10 16 0.00 0.00
2:53 pm 14:53 Cloudy with Light Rain 59 15 47 8.3 64 64 SSW 10 17 30.02 1017 8 13 0.00 0.03
3:53 pm 15:53 Cloudy 57 13.9 46 7.8 67 67 S 10 17 30.01 1016 10 16 0.00 0.03
4:53 pm 16:53 Cloudy with Light Rain 53 11.7 48 8.9 83 83 S 5 7 30.01 1016 4 6 0.04 1.02
5:53 pm 17:53 Cloudy 54 12.2 48 8.9 80 80 S 7 11 30.01 1016 10 16 0.00 0.03
6:53 pm 18:53 Cloudy 54 12.2 48 8.9 80 80 S 7 11 30.00 1016 10 16 0.00 0.00
7:05 pm 19:05 Cloudy 53 11.7 48 8.9 83 83 S 6 9 30.00 1016 10 16 0.00 0.00
7:53 pm 19:53 Cloudy 54 12.2 48 8.9 80 80 SSE 6 9 29.99 1016 10 16 0.00 0.00
8:53 pm 20:53 Cloudy with Light Rain 54 12.2 49 9.4 83 83 S 7 11 30.00 1016 10 16 0.00 0.03
9:53 pm 21:53 Cloudy 54 12.2 49 9.4 83 83 SE 5 7 29.97 1015 10 16 0.00 0.03
10:10 pm 22:10 Cloudy 54 12.2 49 9.4 83 83 SSE 8 13 29.97 1015 10 16 0.00 0.00
10:49 pm 22:49 Cloudy 54 12 48 9 82 82 S 8 13 29.97 1015 10 16 0.00 0.00
10:53 pm 22:53 Cloudy 54 12.2 49 9.4 83 83 S 7 11 29.95 1014 10 16 0.00 0.00
11:12 pm 23:12 Cloudy 54 12.2 49 9.4 83 83 S 9 15 29.97 1015 10 16 0.00 0.00
11:19 pm 23:19 Cloudy 54 12.2 49 9.4 83 83 S 8 13 29.94 1014 10 16 0.00 0.00
11:53 pm 23:53 Cloudy 54 12.2 49 9.4 83 83 S 8 13 29.93 1014 10 16 0.00 0.00

Powered by Vaisala Xweather